FW6463 Weather Reports


time (UTC)temp
F
wind
direction
speed
knots
gust
knots
rain 1hr
in
rain 24hr
in
rain mn
in
humidity
%
barometer
mb
20260831045522 70 186 2.6 3.5 0.00 0.00 0.00 99 1023.4
20260831044548 69 0.0 0.0 0.00 0.00 0.00 99 1023.2
20260831043532 69 135 0.0 0.9 0.00 0.00 0.00 99 1023.1
20260831042519 69 101 0.0 0.9 0.00 0.00 0.00 99 1023.2
20260831041604 70 0.0 0.0 0.00 0.00 0.00 99 1023.2
20260831040529 70 167 0.0 1.7 0.00 0.00 0.00 99 1023.2
20260831035515 70 289 0.0 1.7 0.00 0.00 0.00 99 1023.2
20260831034521 70 0.0 0.0 0.00 0.00 0.00 99 1023.4
20260831033526 70 0.0 0.0 0.00 0.00 0.00 99 1023.4
20260831032530 70 0.0 0.0 0.00 0.00 0.00 99 1023.6
20260831031518 70 0.0 0.0 0.00 0.00 0.00 99 1023.6
20260831030543 70 0.0 0.0 0.00 0.00 0.00 99 1023.4
20260831025527 71 0.0 0.0 0.00 0.00 0.00 99 1023.6
20260831024532 71 0.0 0.0 0.00 0.00 0.00 99 1023.6
20260831023600 71 0.0 0.0 0.00 0.00 0.00 99 1023.4
20260831022524 71 143 0.9 1.7 0.00 0.00 0.00 99 1023.5
20260831021530 72 0.0 0.0 0.00 0.00 0.00 99 1023.6
20260831020516 72 0.0 0.0 0.00 0.00 0.00 99 1023.7
20260831015602 72 0.0 0.0 0.00 0.00 0.00 99 1023.7
20260831014527 72 0.0 0.0 0.00 0.00 0.00 99 1023.7
20260831013532 72 0.0 0.0 0.00 0.00 0.00 99 1023.4
20260831012519 73 0.0 0.0 0.00 0.00 0.00 99 1023.2
20260831011523 73 0.0 0.0 0.00 0.00 0.00 98 1023.2
20260831010529 73 180 0.0 2.6 0.00 0.00 0.00 99 1023.2
20260831005516 74 0.0 0.0 0.00 0.00 0.00 98 1023.1
20260831004520 74 0.0 0.0 0.00 0.00 0.00 98 1022.9
20260831003525 75 0.0 0.0 0.00 0.00 0.00 98 1022.5
20260831002524 75 170 1.7 2.6 0.00 0.00 0.00 98 1022.4
20260831001517 75 160 0.9 1.7 0.00 0.00 0.00 96 1022.3
20260831000523 75 0.0 0.0 0.00 0.00 0.00 95 1022.2
20260830235521 76 0.0 0.0 0.00 0.00 0.00 94 1022.2
20260830234601 76 163 0.9 1.7 0.00 0.00 0.00 93 1022.2
20260830233519 77 0.0 0.0 0.00 0.00 0.00 91 1022.2
20260830232518 78 0.0 0.0 0.00 0.00 0.00 89 1022.2
20260830231517 78 0.0 0.0 0.00 0.00 0.00 87 1022.2
20260830230516 79 0.0 0.0 0.00 0.00 0.00 86 1022.2
20260830225515 80 0.0 0.0 0.00 0.00 0.00 84 1022.4
20260830224546 80 0.0 0.0 0.00 0.00 0.00 81 1022.2
20260830223552 81 203 0.0 1.7 0.00 0.00 0.00 80 1022.2
20260830222518 83 0.0 0.0 0.00 0.00 0.00 78 1022.2
20260830221523 85 0.0 0.0 0.00 0.00 0.00 75 1022.1
20260830220528 87 113 0.0 0.9 0.00 0.00 0.00 69 1022.0
20260830215515 90 11 1.7 2.6 0.00 0.00 0.00 64 1021.9
20260830214520 91 325 1.7 3.5 0.00 0.00 0.00 64 1021.8
20260830213525 91 12 1.7 1.7 0.00 0.00 0.00 64 1022.0
20260830212530 87 359 1.7 3.5 0.00 0.00 0.00 70 1021.9
20260830211517 89 317 3.5 5.2 0.00 0.00 0.00 64 1021.9
20260830210522 88 276 3.5 4.3 0.00 0.00 0.00 67 1021.8
20260830205527 87 170 2.6 4.3 0.00 0.00 0.00 71 1021.8
20260830204531 87 235 1.7 3.5 0.00 0.00 0.00 73 1022.0
20260830203539 86 216 2.6 3.5 0.00 0.00 0.00 73 1022.2
20260830202523 84 245 2.6 3.5 0.00 0.00 0.00 78 1022.2
20260830201528 85 200 1.7 2.6 0.00 0.00 0.00 77 1022.1
20260830200516 86 217 3.5 4.3 0.00 0.00 0.00 74 1022.0
20260830195520 85 219 2.6 3.5 0.00 0.00 0.00 76 1022.2
20260830194526 85 250 2.6 5.2 0.00 0.00 0.00 76 1022.4
20260830193551 86 220 3.5 5.2 0.00 0.00 0.00 74 1022.5
20260830192517 86 245 1.7 4.3 0.00 0.00 0.00 74 1022.8
20260830191522 87 239 3.5 4.3 0.00 0.00 0.00 75 1022.9
20260830190528 87 245 3.5 7.0 0.00 0.00 0.00 72 1023.1
20260830185532 85 177 3.5 4.3 0.00 0.00 0.00 78 1023.2
20260830184519 0 0.0 0.0 0.00 0.00 0.00 1023.4
20260830183524 85 246 2.6 3.5 0.00 0.00 0.00 80 1023.9
20260830182529 86 263 4.3 7.0 0.00 0.00 0.00 79 1023.8
20260830181516 86 264 4.3 7.8 0.00 0.00 0.00 79 1023.8
20260830180521 85 227 3.5 6.1 0.00 0.00 0.00 80 1023.9
20260830175526 85 237 3.5 6.1 0.00 0.00 0.00 81 1024.0
20260830174531 82 235 3.5 5.2 0.00 0.00 0.00 84 1024.2
20260830173519 82 232 2.6 4.3 0.00 0.00 0.00 84 1024.3
20260830172523 84 256 6.1 7.8 0.00 0.00 0.00 81 1024.3
20260830171528 85 238 4.3 7.8 0.00 0.00 0.00 81 1024.3
20260830170515 86 256 4.3 5.2 0.00 0.00 0.00 79 1024.4
20260830165520 83 243 4.3 6.1 0.00 0.00 0.00 81 1024.5
20260830164525 83 215 4.3 7.8 0.00 0.00 0.00 84 1024.4
20260830163530 82 252 3.5 6.1 0.00 0.00 0.00 85 1024.5
20260830162516 81 273 5.2 7.8 0.00 0.00 0.00 85 1024.6
20260830161522 81 236 4.3 7.0 0.00 0.00 0.00 85 1024.7
20260830160527 81 253 5.2 6.1 0.00 0.00 0.00 86 1024.8
20260830155532 81 280 4.3 7.0 0.00 0.00 0.00 86 1024.7
20260830154539 79 264 4.3 7.0 0.00 0.00 0.00 89 1025.0
20260830153524 79 258 3.5 7.0 0.00 0.00 0.00 90 1025.0
20260830152529 0 203 3.5 3.5 0.00 0.00 0.00 1025.2
20260830151536 77 220 4.3 6.1 0.00 0.00 0.00 92 1025.2
20260830150521 77 204 2.6 4.3 0.00 0.00 0.00 91 1025.2
20260830145526 78 267 3.5 6.1 0.00 0.00 0.00 89 1025.1
20260830144525 75 207 0.9 2.6 0.00 0.00 0.00 93 1025.3
20260830143517 74 3 1.7 2.6 0.00 0.00 0.00 93 1025.2
20260830142522 74 273 1.7 2.6 0.00 0.00 0.00 94 1025.2
20260830141521 73 286 2.6 4.3 0.00 0.00 0.00 93 1025.2
20260830140520 74 280 1.7 3.5 0.00 0.00 0.00 92 1025.1
20260830135520 72 235 1.7 2.6 0.00 0.00 0.00 94 1025.2
20260830134518 71 272 1.7 2.6 0.00 0.00 0.00 94 1025.1
20260830133537 71 226 2.6 3.5 0.00 0.00 0.00 93 1025.3
20260830132516 70 252 2.6 3.5 0.00 0.00 0.00 93 1025.3
20260830131536 69 258 1.7 2.6 0.00 0.00 0.00 94 1025.4
20260830130526 69 203 0.0 1.7 0.00 0.00 0.00 94 1025.5
20260830125552 68 222 1.7 2.6 0.00 0.00 0.00 95 1025.7
20260830124518 67 262 1.7 2.6 0.00 0.00 0.00 98 1025.7
20260830123523 66 236 0.0 1.7 0.00 0.00 0.00 99 1025.7
20260830122528 65 0.0 0.0 0.00 0.00 0.00 99 1025.6
20260830121515 65 0.0 0.0 0.00 0.00 0.00 99 1025.7
20260830120540 64 0.0 0.0 0.00 0.00 0.00 99 1025.7
20260830115526 63 0.0 0.0 0.00 0.00 0.00 99 1025.7
20260830114530 62 180 0.0 0.9 0.00 0.00 0.00 99 1025.6
20260830113517 61 0.0 0.0 0.00 0.00 0.00 99 1025.6
20260830112522 60 0.0 0.0 0.00 0.00 0.00 99 1025.6
20260830111527 60 0.0 0.0 0.00 0.00 0.00 99 1025.6
20260830110532 60 0.0 0.0 0.00 0.00 0.00 99 1025.6
20260830105539 60 0.0 0.0 0.00 0.00 0.00 99 1025.5
20260830104524 60 0.0 0.0 0.00 0.00 0.00 99 1025.6
20260830103529 60 0.0 0.0 0.00 0.00 0.00 99 1025.6
20260830102536 60 0.0 0.0 0.00 0.00 0.00 99 1025.6
20260830101521 60 0.0 0.0 0.00 0.00 0.00 99 1025.6
20260830100526 60 0.0 0.0 0.00 0.00 0.00 99 1025.6
20260830095551 60 0.0 0.0 0.00 0.00 0.00 99 1025.7
20260830094518 60 0.0 0.0 0.00 0.00 0.00 99 1025.6
20260830093523 59 0.0 0.0 0.00 0.00 0.00 99 1025.7
20260830092528 59 0.0 0.0 0.00 0.00 0.00 99 1025.5
20260830091533 59 0.0 0.0 0.00 0.00 0.00 99 1025.6
20260830090520 59 0.0 0.0 0.00 0.00 0.00 99 1025.7
20260830085525 59 0.0 0.0 0.00 0.00 0.00 99 1025.5
20260830084530 59 0.0 0.0 0.00 0.00 0.00 99 1025.7
20260830083517 59 0.0 0.0 0.00 0.00 0.00 99 1026.0
20260830082522 59 0.0 0.0 0.00 0.00 0.00 99 1026.1
20260830081547 59 0.0 0.0 0.00 0.00 0.00 99 1026.1
20260830080532 59 0.0 0.0 0.00 0.00 0.00 99 1026.1
20260830075519 59 0.0 0.0 0.00 0.00 0.00 99 1026.3
20260830074523 59 0.0 0.0 0.00 0.00 0.00 99 1026.1
20260830073528 58 180 0.0 0.9 0.00 0.00 0.00 99 1026.1
20260830072515 58 165 0.9 1.7 0.00 0.00 0.00 99 1026.1
20260830071541 58 321 0.9 2.6 0.00 0.00 0.00 99 1026.1
20260830070525 58 0.0 0.0 0.00 0.00 0.00 99 1026.1
20260830065530 58 180 0.0 0.9 0.00 0.00 0.00 99 1026.3
20260830064517 58 0.0 0.0 0.00 0.00 0.00 99 1026.4
20260830063523 58 0.0 0.0 0.00 0.00 0.00 99 1026.5
20260830062547 58 0.0 0.0 0.00 0.00 0.00 99 1026.5
20260830061532 58 0.0 0.0 0.00 0.00 0.00 99 1026.5
20260830060519 58 0.0 0.0 0.00 0.00 0.00 99 1026.4
20260830055525 58 0.0 1.7 0.00 0.00 0.00 99 1026.4
20260830054530 58 0.0 0.0 0.00 0.00 0.00 99 1026.6
20260830053516 58 169 0.0 1.7 0.00 0.00 0.00 99 1026.5
20260830052521 58 0.0 0.0 0.00 0.00 0.00 99 1026.5
20260830051526 58 176 0.9 1.7 0.00 0.00 0.00 99 1026.5
20260830050525 58 0.0 0.0 0.00 0.00 0.00 99 1026.5